30.06.2024;16:00;12
30.06.2024;15:00;11
30.06.2024;14:00;11
30.06.2024;13:00;12
30.06.2024;12:00;14
30.06.2024;11:00;17
30.06.2024;10:00;20
30.06.2024;09:00;29
30.06.2024;08:00;32
30.06.2024;07:00;34
30.06.2024;06:00;36
30.06.2024;05:00;48
30.06.2024;04:00;62
30.06.2024;03:00;66
30.06.2024;02:00;66
30.06.2024;01:00;67
29.06.2024;24:00;67
29.06.2024;23:00;56
29.06.2024;22:00;30
29.06.2024;21:00;23
29.06.2024;20:00;21
29.06.2024;19:00;22
29.06.2024;18:00;23
29.06.2024;17:00;21
29.06.2024;16:00;20
29.06.2024;15:00;19
29.06.2024;14:00;18
29.06.2024;13:00;16
29.06.2024;12:00;16
29.06.2024;11:00;16
29.06.2024;10:00;14
29.06.2024;09:00;17
29.06.2024;08:00;18
29.06.2024;07:00;22
29.06.2024;06:00;24
29.06.2024;05:00;26
29.06.2024;04:00;29
29.06.2024;03:00;29
29.06.2024;02:00;24
29.06.2024;01:00;23
28.06.2024;24:00;24
28.06.2024;23:00;22
28.06.2024;22:00;22
28.06.2024;21:00;22
28.06.2024;20:00;16
28.06.2024;19:00;16
28.06.2024;18:00;14
28.06.2024;17:00;13
28.06.2024;16:00;13
28.06.2024;15:00;12
28.06.2024;14:00;12
28.06.2024;13:00;11
28.06.2024;12:00;10
28.06.2024;11:00;8
28.06.2024;10:00;7
28.06.2024;09:00;8
28.06.2024;08:00;8
28.06.2024;07:00;12
28.06.2024;06:00;15
28.06.2024;05:00;14
28.06.2024;04:00;16
28.06.2024;03:00;15
28.06.2024;02:00;14
28.06.2024;01:00;13
27.06.2024;24:00;18
27.06.2024;23:00;18
27.06.2024;22:00;18
27.06.2024;21:00;17
27.06.2024;20:00;16
27.06.2024;19:00;16
27.06.2024;18:00;17
27.06.2024;17:00;16
27.06.2024;16:00;14
27.06.2024;15:00;15
27.06.2024;14:00;15
27.06.2024;13:00;14
27.06.2024;12:00;13
27.06.2024;11:00;11
27.06.2024;10:00;10
27.06.2024;09:00;9
27.06.2024;08:00;9
27.06.2024;07:00;10
27.06.2024;06:00;10
27.06.2024;05:00;9
27.06.2024;04:00;8
27.06.2024;03:00;8
27.06.2024;02:00;8
27.06.2024;01:00;8
26.06.2024;24:00;9
26.06.2024;23:00;11
26.06.2024;22:00;13
26.06.2024;21:00;14
26.06.2024;20:00;14
26.06.2024;19:00;14
26.06.2024;18:00;16
26.06.2024;17:00;17
26.06.2024;16:00;18
26.06.2024;15:00;20
26.06.2024;14:00;19
26.06.2024;13:00;21
26.06.2024;12:00;20
26.06.2024;11:00;19
26.06.2024;10:00;15
26.06.2024;09:00;13
26.06.2024;08:00;13
26.06.2024;07:00;13
26.06.2024;06:00;13
26.06.2024;05:00;12
26.06.2024;04:00;12
26.06.2024;03:00;14
26.06.2024;02:00;20
26.06.2024;01:00;26
25.06.2024;24:00;24
25.06.2024;23:00;23
25.06.2024;22:00;21
25.06.2024;21:00;20
25.06.2024;20:00;19
25.06.2024;19:00;19
25.06.2024;18:00;18
25.06.2024;17:00;17
25.06.2024;16:00;16
25.06.2024;15:00;16
25.06.2024;14:00;16
25.06.2024;13:00;16
25.06.2024;12:00;15
25.06.2024;11:00;14
25.06.2024;10:00;13
25.06.2024;09:00;12
25.06.2024;08:00;13
25.06.2024;07:00;15
25.06.2024;06:00;14
25.06.2024;05:00;12
25.06.2024;04:00;12
25.06.2024;03:00;13
25.06.2024;02:00;14
25.06.2024;01:00;18
